Wrangell, AK

7:01 PM AKDT on April 19, 2018 (GMT -0800)
Wrangell

Weather History for PAWG - April, 2013

Change the Weather History Date:

Monday, April 8, 2013

  Actual Average Record
Temperature  
Mean Temperature 44 °F -  
Max Temperature 53 °F 48 °F 58 °F (1959)
Min Temperature 35 °F 33 °F 23 °F (1972)
Degree Days  
Heating Degree Days 21    
Moisture  
Dew Point 32 °F    
Average Humidity 68    
Maximum Humidity 87    
Minimum Humidity 41    
Precipitation  
Precipitation 0.04 in - - ()
Sea Level Pressure  
Sea Level Pressure 29.92 in    
Wind  
Wind Speed 9 mph (SE)    
Max Wind Speed 22 mph    
Max Gust Speed 36 mph    
Visibility 10 miles    
Events      
Averages and records for this station are not official NWS values.
T = Trace of Precipitation, MM = Missing Value Source: NWS Daily Summary

Daily Weather History Graph

Daily Weather History Graph

Search for Another Location

Airport or City:

Astronomy

Apr. 08, 2013 Rise Set
Actual Time 5:59 AM AKDT 7:43 PM AKDT
Civil Twilight 5:20 AM AKDT 8:23 PM AKDT
Nautical Twilight 4:30 AM AKDT 9:13 PM AKDT
Astronomical Twilight 3:33 AM AKDT 10:11 PM AKDT
Moon 5:09 AM AKDT (4/8) 6:16 PM AKDT (4/8)
Length of Visible Light 15h 03m
Length of Day
13h 44m
Waning Crescent, 3% of the Moon is Illuminated
Apr 8
Waning Crescent
Apr 10
New
Apr 18
First Quarter
Apr 25
Full
May 2
Last Quarter

Hourly Weather History & Observations

Time (AKDT) Temp. Windchill Dew Point Humidity Pressure Visibility Wind Dir Wind Speed Gust Speed Precip Events Conditions
12:16 AM 37.4 °F 32.8 °F 32.0 °F 81% 30.01 in 10.0 mi SSE 5.8 mph - N/A   Clear
12:36 AM 37.4 °F 32.1 °F 32.0 °F 81% 30.02 in 10.0 mi SSE 6.9 mph - N/A   Clear
12:56 AM 37.4 °F 32.8 °F 30.2 °F 75% 30.02 in 10.0 mi SE 5.8 mph - N/A   Clear
1:16 AM 35.6 °F 29.9 °F 30.2 °F 81% 30.02 in 10.0 mi SE 6.9 mph - N/A   Clear
1:36 AM 35.6 °F 29.2 °F 30.2 °F 81% 30.01 in 10.0 mi SE 8.1 mph - N/A   Clear
1:56 AM 35.6 °F 28.6 °F 30.2 °F 81% 30.01 in 10.0 mi SE 9.2 mph - N/A   Clear
2:16 AM 35.6 °F 29.2 °F 30.2 °F 81% 30.01 in 10.0 mi SE 8.1 mph - N/A   Clear
2:36 AM 35.6 °F 31.7 °F 32.0 °F 87% 30.02 in 10.0 mi SE 4.6 mph - N/A   Clear
2:56 AM 35.6 °F 30.7 °F 30.2 °F 81% 30.02 in 10.0 mi SE 5.8 mph - N/A   Clear
3:16 AM 35.6 °F 29.9 °F 30.2 °F 81% 30.02 in 10.0 mi SSE 6.9 mph - N/A   Clear
3:36 AM 35.6 °F 29.9 °F 30.2 °F 81% 30.01 in 10.0 mi SE 6.9 mph - N/A   Clear
3:56 AM 35.6 °F 29.9 °F 30.2 °F 81% 30.01 in 10.0 mi SE 6.9 mph - N/A   Clear
4:16 AM 35.6 °F 29.2 °F 30.2 °F 81% 30.00 in 10.0 mi SE 8.1 mph - N/A   Clear
4:36 AM 35.6 °F 29.9 °F 30.2 °F 81% 30.00 in 10.0 mi SE 6.9 mph - N/A   Clear
4:56 AM 35.6 °F 29.2 °F 30.2 °F 81% 29.99 in 10.0 mi SSE 8.1 mph - N/A   Clear
5:16 AM 35.6 °F 29.9 °F 30.2 °F 81% 29.99 in 10.0 mi SSE 6.9 mph - N/A   Clear
5:36 AM 35.6 °F 30.7 °F 30.2 °F 81% 29.99 in 10.0 mi ESE 5.8 mph - N/A   Clear
5:56 AM 35.6 °F 29.2 °F 32.0 °F 87% 29.99 in 10.0 mi ESE 8.1 mph - N/A   Scattered Clouds
6:16 AM 35.6 °F 29.2 °F 30.2 °F 81% 29.99 in 10.0 mi SE 8.1 mph - N/A   Scattered Clouds
6:36 AM 35.6 °F 30.7 °F 30.2 °F 81% 29.99 in 10.0 mi SE 5.8 mph - N/A   Scattered Clouds
6:56 AM 37.4 °F 32.8 °F 30.2 °F 75% 29.99 in 10.0 mi SE 5.8 mph - N/A   Scattered Clouds
7:16 AM 37.4 °F 30.3 °F 32.0 °F 81% 29.98 in 10.0 mi ESE 10.4 mph - N/A   Scattered Clouds
7:36 AM 37.4 °F 30.8 °F 32.0 °F 81% 29.99 in 10.0 mi SE 9.2 mph - N/A   Scattered Clouds
7:56 AM 39.2 °F 33.6 °F 33.8 °F 81% 29.99 in 10.0 mi SE 8.1 mph - N/A   Mostly Cloudy
8:16 AM 39.2 °F 33.6 °F 33.8 °F 81% 29.98 in 10.0 mi ESE 8.1 mph - N/A   Mostly Cloudy
8:36 AM 41.0 °F 37.1 °F 33.8 °F 76% 29.98 in 10.0 mi ESE 5.8 mph - N/A   Mostly Cloudy
8:56 AM 42.8 °F 37.0 °F 35.6 °F 76% 29.96 in 10.0 mi East 10.4 mph - N/A   Mostly Cloudy
9:16 AM 41.0 °F 34.3 °F 33.8 °F 76% 29.96 in 10.0 mi East 11.5 mph - N/A   Mostly Cloudy
9:36 AM 42.8 °F 41.1 °F 35.6 °F 76% 29.96 in 10.0 mi ENE 3.5 mph - N/A   Mostly Cloudy
9:56 AM 44.6 °F 42.2 °F 35.6 °F 71% 29.96 in 10.0 mi ESE 4.6 mph - N/A   Scattered Clouds
10:16 AM 44.6 °F 42.2 °F 35.6 °F 71% 29.97 in 10.0 mi East 4.6 mph - N/A   Scattered Clouds
10:36 AM 44.6 °F - 33.8 °F 66% 29.96 in 10.0 mi Calm Calm - N/A   Scattered Clouds
10:56 AM 46.4 °F 42.9 °F 33.8 °F 62% 29.97 in 10.0 mi SE 6.9 mph - N/A   Scattered Clouds
11:16 AM 46.4 °F 43.5 °F 35.6 °F 66% 29.96 in 10.0 mi SE 5.8 mph - N/A   Scattered Clouds
11:36 AM 48.2 °F - 37.4 °F 66% 29.95 in 10.0 mi East 8.1 mph - N/A   Scattered Clouds
11:56 AM 51.8 °F - 37.4 °F 58% 29.94 in 10.0 mi ESE 13.8 mph 19.6 mph N/A   Scattered Clouds
12:16 PM 51.8 °F - 33.8 °F 50% 29.93 in 10.0 mi ESE 16.1 mph 24.2 mph N/A   Scattered Clouds
12:36 PM 51.8 °F - 33.8 °F 50% 29.92 in 10.0 mi ESE 13.8 mph 24.2 mph N/A   Scattered Clouds
12:56 PM 53.6 °F - 33.8 °F 47% 29.92 in 10.0 mi ESE 10.4 mph 21.9 mph N/A   Mostly Cloudy
1:16 PM 53.6 °F - 30.2 °F 41% 29.91 in 10.0 mi ESE 6.9 mph 16.1 mph N/A   Mostly Cloudy
1:36 PM 53.6 °F - 30.2 °F 41% 29.91 in 10.0 mi ESE 6.9 mph - N/A   Mostly Cloudy
1:56 PM 53.6 °F - 30.2 °F 41% 29.90 in 10.0 mi ESE 10.4 mph 16.1 mph N/A   Overcast
2:16 PM 53.6 °F - 30.2 °F 41% 29.89 in 10.0 mi ESE 10.4 mph 16.1 mph N/A   Overcast
2:36 PM 51.8 °F - 30.2 °F 44% 29.89 in 10.0 mi SE 18.4 mph 25.3 mph N/A   Overcast
2:56 PM 51.8 °F - 30.2 °F 44% 29.90 in 10.0 mi ESE 12.7 mph 19.6 mph N/A   Overcast
3:16 PM 51.8 °F - 30.2 °F 44% 29.90 in 10.0 mi SE 13.8 mph 28.8 mph N/A   Overcast
3:36 PM 50.0 °F - 28.4 °F 43% 29.90 in 10.0 mi SE 12.7 mph 20.7 mph N/A   Overcast
3:56 PM 50.0 °F - 30.2 °F 47% 29.90 in 10.0 mi SE 12.7 mph 21.9 mph N/A   Overcast
4:16 PM 48.2 °F - 30.2 °F 50% 29.88 in 10.0 mi ESE 21.9 mph 35.7 mph N/A   Overcast
4:36 PM 48.2 °F - 30.2 °F 50% 29.88 in 10.0 mi SE 19.6 mph 27.6 mph N/A   Overcast
4:56 PM 48.2 °F - 30.2 °F 50% 29.88 in 10.0 mi SE 16.1 mph 26.5 mph N/A   Overcast
5:16 PM 48.2 °F - 32.0 °F 54% 29.89 in 10.0 mi SE 15.0 mph 21.9 mph N/A   Overcast
5:36 PM 48.2 °F - 30.2 °F 50% 29.88 in 10.0 mi ESE 8.1 mph 24.2 mph N/A   Overcast
5:56 PM 48.2 °F - 30.2 °F 50% 29.87 in 10.0 mi SE 17.3 mph 27.6 mph N/A   Overcast
6:16 PM 48.2 °F - 33.8 °F 58% 29.86 in 10.0 mi ESE 16.1 mph 24.2 mph N/A   Overcast
6:36 PM 48.2 °F - 33.8 °F 58% 29.86 in 10.0 mi ESE 15.0 mph 23.0 mph N/A   Overcast
6:56 PM 48.2 °F - 33.8 °F 58% 29.85 in 10.0 mi ESE 13.8 mph 28.8 mph N/A   Overcast
7:16 PM 46.4 °F 40.1 °F 33.8 °F 62% 29.85 in 10.0 mi ESE 15.0 mph 23.0 mph N/A   Overcast
7:36 PM 46.4 °F 39.5 °F 35.6 °F 66% 29.85 in 10.0 mi ESE 17.3 mph 25.3 mph N/A   Overcast
7:56 PM 44.6 °F 36.6 °F 33.8 °F 66% 29.84 in 10.0 mi SE 19.6 mph 29.9 mph N/A   Overcast
8:16 PM 44.6 °F 37.4 °F 33.8 °F 66% 29.84 in 10.0 mi SE 16.1 mph 28.8 mph N/A   Overcast
8:36 PM 42.8 °F 34.8 °F 35.6 °F 76% 29.85 in 10.0 mi ESE 17.3 mph 23.0 mph N/A   Overcast
8:56 PM 42.8 °F 35.1 °F 35.6 °F 76% 29.85 in 10.0 mi SE 16.1 mph 23.0 mph N/A   Overcast
9:16 PM 42.8 °F 34.5 °F 35.6 °F 76% 29.84 in 10.0 mi ESE 18.4 mph 24.2 mph 0.01 in   Overcast
9:36 PM 42.8 °F 34.5 °F 35.6 °F 76% 29.83 in 10.0 mi SE 18.4 mph 28.8 mph 0.01 in   Overcast
9:56 PM 42.8 °F 33.8 °F 35.6 °F 76% 29.81 in 10.0 mi SE 21.9 mph 26.5 mph 0.02 in   Overcast
10:16 PM 42.8 °F 33.8 °F 33.8 °F 70% 29.79 in 10.0 mi SE 21.9 mph 32.2 mph N/A   Overcast
10:36 PM 42.8 °F 34.8 °F 33.8 °F 70% 29.79 in 10.0 mi SE 17.3 mph 24.2 mph N/A   Overcast
10:56 PM 42.8 °F 35.4 °F 33.8 °F 70% 29.77 in 10.0 mi SE 15.0 mph 25.3 mph N/A   Overcast
11:16 PM 42.8 °F 35.4 °F 35.6 °F 76% 29.76 in 10.0 mi SE 15.0 mph 19.6 mph 0.01 in   Overcast
11:36 PM 42.8 °F 35.1 °F 35.6 °F 76% 29.73 in 10.0 mi ESE 16.1 mph 23.0 mph 0.01 in   Overcast
11:56 PM 42.8 °F 35.8 °F 35.6 °F 76% 29.72 in 10.0 mi ESE 13.8 mph 23.0 mph 0.02 in   Overcast